Truth Or Consequences, NM

3:19 AM MST on December 13, 2017 (GMT -0700)
Truth Or Consequences Municipal

Weather History for KTCS - December, 2012

Change the Weather History Date:

Tuesday, December 25, 2012

  Actual Average Record
Temperature  
Mean Temperature 39 °F -  
Max Temperature 45 °F 52 °F 63 °F (2014)
Min Temperature 33 °F 27 °F 12 °F (2011)
Degree Days  
Heating Degree Days 26    
Month to date heating degree days  
Since 1 July heating degree days  
Moisture  
Dew Point 15 °F    
Average Humidity 39    
Maximum Humidity 57    
Minimum Humidity 17    
Precipitation  
Precipitation 0.00 in - 0.06 in (1999)
Month to date precipitation  
Year to date precipitation  
Sea Level Pressure  
Sea Level Pressure 29.95 in    
Wind  
Wind Speed 17 mph (NW)    
Max Wind Speed 36 mph    
Max Gust Speed 53 mph    
Visibility 10 miles    
Events      
T = Trace of Precipitation, MM = Missing Value Source: NWS Daily Summary

Daily Weather History Graph

Daily Weather History Graph

Search for Another Location

Airport or City:

Trip Planner

Search our weather history database for the weather conditions in past years. The results will help you decide how hot, cold, wet, or windy it might be!

Date:

Astronomy

Dec. 25, 2012 Rise Set
Actual Time 7:10 AM MST 5:08 PM MST
Civil Twilight 6:43 AM MST 5:35 PM MST
Nautical Twilight 6:12 AM MST 6:06 PM MST
Astronomical Twilight 5:41 AM MST 6:37 PM MST
Moon 3:16 PM MST (12/25) 4:47 AM MST (12/25)
Length of Visible Light 10h 52m
Length of Day
9h 57m
Waxing Gibbous, 94% of the Moon is Illuminated
Dec 25
Waxing Gibbous
Dec 28
Full
Jan 4
Last Quarter
Jan 11
New
Jan 18
First Quarter

Hourly Weather History & Observations

Time (MST) Temp. Windchill Dew Point Humidity Pressure Visibility Wind Dir Wind Speed Gust Speed Precip Events Conditions
12:53 AM 37.0 °F 25.6 °F 21.0 °F 52% 29.71 in 10.0 mi West 24.2 mph 31.1 mph N/A   Clear
1:53 AM 37.9 °F 25.9 °F 19.9 °F 48% 29.70 in 10.0 mi WNW 28.8 mph 36.8 mph N/A   Clear
2:53 AM 37.0 °F 23.5 °F 23.0 °F 57% 29.74 in 10.0 mi WNW 35.7 mph 52.9 mph N/A   Clear
3:53 AM 36.0 °F 23.7 °F 21.0 °F 55% 29.76 in 10.0 mi WNW 26.5 mph 32.2 mph N/A   Clear
4:53 AM 35.1 °F 25.9 °F 19.0 °F 52% 29.79 in 10.0 mi NW 13.8 mph 31.1 mph N/A   Clear
5:53 AM 35.1 °F 26.4 °F 19.0 °F 52% 29.85 in 10.0 mi NW 12.7 mph 20.7 mph N/A   Clear
6:53 AM 34.0 °F 23.8 °F 14.0 °F 44% 29.89 in 10.0 mi NW 16.1 mph 27.6 mph N/A   Clear
7:53 AM 34.0 °F 22.1 °F 12.9 °F 42% 29.93 in 10.0 mi NW 21.9 mph 34.5 mph N/A   Clear
8:53 AM 35.1 °F 24.5 °F 14.0 °F 42% 29.99 in 10.0 mi NW 18.4 mph 28.8 mph N/A   Clear
9:53 AM 37.9 °F 28.2 °F 12.9 °F 36% 30.02 in 10.0 mi NW 18.4 mph 25.3 mph N/A   Clear
10:53 AM 42.1 °F 34.5 °F 12.0 °F 29% 30.02 in 10.0 mi NW 15.0 mph 21.9 mph N/A   Clear
11:53 AM 43.0 °F 37.7 °F 10.0 °F 26% 30.02 in 10.0 mi NW 9.2 mph - N/A   Clear
12:53 PM 45.0 °F 43.5 °F 9.0 °F 23% 29.99 in 10.0 mi NNE 3.5 mph - N/A   Clear
1:53 PM 44.1 °F - 9.0 °F 24% 29.97 in 10.0 mi Calm Calm - N/A   Clear
2:53 PM 44.1 °F 40.8 °F 9.0 °F 24% 29.98 in 10.0 mi North 5.8 mph - N/A   Clear
3:53 PM 44.1 °F 39.5 °F 10.0 °F 25% 29.99 in 10.0 mi NE 8.1 mph - N/A   Clear
4:53 PM 39.9 °F 36.7 °F 14.0 °F 35% 30.01 in 10.0 mi East 4.6 mph - N/A   Clear
5:53 PM 37.9 °F - 15.1 °F 39% 30.03 in 10.0 mi Calm Calm - N/A   Clear
6:53 PM 37.0 °F - 16.0 °F 42% 30.04 in 10.0 mi Calm Calm - N/A   Clear
7:53 PM 35.1 °F 31.0 °F 18.0 °F 50% 30.07 in 10.0 mi West 4.6 mph - N/A   Clear
8:53 PM 35.1 °F 30.1 °F 17.1 °F 48% 30.06 in 10.0 mi West 5.8 mph - N/A   Clear
9:53 PM 34.0 °F 28.8 °F 17.1 °F 50% 30.06 in 10.0 mi WNW 5.8 mph - N/A   Clear
10:53 PM 35.1 °F 30.1 °F 16.0 °F 46% 30.02 in 10.0 mi NW 5.8 mph - N/A   Clear
11:53 PM 34.0 °F 28.0 °F 16.0 °F 48% 30.01 in 10.0 mi NW 6.9 mph - N/A   Clear